Regional Weather Roundup
Issued by NWS

Home | Current Version | Previous Version | Graphics & Text | Print | Product List | Glossary Off
Versions: 1 2 3 4 5 6 7 8 9 10 11 12 13 14 15 16 17 18 19 20 21 22 23 24 25 26 27 28 29 30 31 32 33 34 35 36 37 38 39 40 41 42 43 44 45 46 47 48 49 50

000
ASUS43 KTOP 011359
RWRKS

WEATHER ROUNDUP FOR KANSAS
NATIONAL WEATHER SERVICE GOODLAND KS
900 AM CDT MON JUN 01 2015

NOTE:  "FAIR" INDICATES FEW OR NO CLOUDS BELOW 12,000 FEET WITH NO
SIGNIFICANT WEATHER AND/OR OBSTRUCTIONS TO VISIBILITY.

KSZ001>006-013>018-027>032-041>047-011500-
NORTHWEST KANSAS

CITY           SKY/WX    TMP DP  RH WIND       PRES   REMARKS
GOODLAND       SUNNY     63  56  78 CALM      30.06R
HAYS           MOSUNNY   64  54  68 S18       30.09R
HILL CITY      PTSUNNY   63  57  81 S14       30.08S
RUSSELL        MOSUNNY   62  58  86 S17       30.09S
$$

KSZ061>065-074>080-084>089-011500-
SOUTHWEST KANSAS

CITY           SKY/WX    TMP DP  RH WIND       PRES   REMARKS
DODGE CITY     SUNNY     64  55  72 S16       30.08F
ELKHART          N/A     67  59  76 W10         N/A
GARDEN CITY    MOSUNNY   63  58  83 SE10      30.06S
GREAT BEND     PTSUNNY   63  57  82 SE17      30.10S
LIBERAL        MOSUNNY   66  61  82 S8        30.08S
$$

KSZ066>073-081>083-090>101-011500-
SOUTHEAST KANSAS

CITY           SKY/WX    TMP DP  RH WIND       PRES   REMARKS
CHANUTE        PTSUNNY   63  57  81 E8        30.15S
COFFEYVILLE    PTSUNNY   64  58  80 NE9       30.14S
HUTCHINSON     MOSUNNY   64  57  78 SE13      30.13S
MEDICINE LODGE   N/A     60  58  92 SE10      30.12R
NEWTON         PTSUNNY   61  52  72 SE9       30.16F
PARSONS        MOSUNNY   64  57  78 E5        30.16S
WICHITA INTL   PTSUNNY   62  54  74 SE8       30.14S
WICHITA JABRA  CLOUDY    61  55  81 MISG      30.14S
WINFIELD       MOSUNNY   64  56  75 E7        30.15S
$$

KSZ007>012-019>026-033>040-048>060-102>105-011500-
NORTHEAST KANSAS

CITY           SKY/WX    TMP DP  RH WIND       PRES   REMARKS
CONCORDIA      MOSUNNY   64  55  72 SE10      30.13S
EMPORIA        MOSUNNY   62  58  86 SE8       30.15S
LAWRENCE       MOSUNNY   62  54  74 E6        30.18R
MANHATTAN      SUNNY     64  56  75 CALM      30.16R
OLATHE IND     CLOUDY    59  54  83 E6        30.18R
OLATHE EXE     PTSUNNY   59  53  80 E6        30.17R
SALINA         PTSUNNY   63  56  78 SE12      30.13F
TOPEKA BILLARD MOSUNNY   63  56  78 SE8       30.17R
TOPEKA FORBES  MOSUNNY   64  55  72 SE8       30.17R
$$


USA.gov is the U.S. government's official web portal to all federal, state and local government web resources and services.